When you browse on this site, cookies collect data to enhance your experience and personalize the content and advertising you see.
Visit our Privacy Policy to learn more. By continuing to use the site, you agree to this use of cookies and data.

Hourly Weather Bansko

Today, 13 July, Monday

Time Temperature Precipitation Wind Pressure Humidity
00:00 +16°C° 0 mm 2 mps 721 mmHg 91%
01:00 +16°C° 0 mm 2 mps 721 mmHg 91%
02:00 +15°C° 0 mm 2 mps 721 mmHg 91%
03:00 +15°C° 0 mm 2 mps 721 mmHg 90%
04:00 +14°C° 0 mm 2 mps 721 mmHg 89%
05:00 +14°C° 0 mm 2 mps 721 mmHg 88%
06:00 +15°C° 0 mm 2 mps 721 mmHg 81%
07:00 +17°C° 0 mm 2 mps 721 mmHg 74%
08:00 +18°C° 0 mm 3 mps 722 mmHg 66%
09:00 +19°C° 0 mm 3 mps 722 mmHg 60%
10:00 +21°C° 0 mm 4 mps 722 mmHg 53%
11:00 +22°C° 0 mm 4 mps 721 mmHg 47%
12:00 +23°C° 0 mm 4 mps 721 mmHg 46%
13:00 +23°C° 0 mm 4 mps 721 mmHg 46%
14:00 +25°C° 0 mm 5 mps 721 mmHg 45%
15:00 +23°C° 0 mm 4 mps 721 mmHg 48%
16:00 +23°C° 0 mm 4 mps 720 mmHg 50%
17:00 +23°C° 0 mm 4 mps 720 mmHg 53%
18:00 +21°C° 0 mm 3 mps 720 mmHg 63%
19:00 +19°C° 0 mm 2 mps 720 mmHg 72%
20:00 +17°C° 0 mm 2 mps 720 mmHg 81%
21:00 +16°C° 0 mm 2 mps 721 mmHg 83%
22:00 +16°C° 0 mm 1 mps 721 mmHg 85%
23:00 +15°C° 0 mm 1 mps 721 mmHg 86%

Tomorrow, 14 July, Tuesday

Time Temperature Precipitation Wind Pressure Humidity
00:00 +15°C° 0 mm 1 mps 721 mmHg 87%
01:00 +14°C° 0 mm 1 mps 721 mmHg 88%
02:00 +14°C° 0 mm 1 mps 721 mmHg 89%
03:00 +13°C° 0 mm 1 mps 721 mmHg 90%
04:00 +13°C° 0 mm 1 mps 721 mmHg 91%
05:00 +13°C° 0 mm 1 mps 721 mmHg 92%
06:00 +15°C° 0 mm 1 mps 721 mmHg 85%
07:00 +18°C° 0 mm 1 mps 721 mmHg 78%
08:00 +19°C° 0 mm 1 mps 721 mmHg 71%
09:00 +21°C° 0 mm 1 mps 721 mmHg 67%
10:00 +22°C° 0 mm 1 mps 721 mmHg 63%
11:00 +24°C° 0 mm 1 mps 721 mmHg 59%
12:00 +24°C° 0.1 mm 1 mps 721 mmHg 58%
13:00 +25°C° 0.1 mm 1 mps 721 mmHg 57%
14:00 +25°C° 0.1 mm 1 mps 720 mmHg 56%
15:00 +25°C° 0.1 mm 1 mps 720 mmHg 57%
16:00 +25°C° 0.1 mm 1 mps 720 mmHg 58%
17:00 +25°C° 0.1 mm 1 mps 719 mmHg 60%
18:00 +23°C° 0.1 mm 1 mps 719 mmHg 66%
19:00 +22°C° 0.1 mm 1 mps 719 mmHg 73%
20:00 +20°C° 0.1 mm 1 mps 719 mmHg 80%
21:00 +19°C° 0 mm 1 mps 720 mmHg 81%
22:00 +19°C° 0 mm 1 mps 720 mmHg 82%
23:00 +18°C° 0 mm 1 mps 720 mmHg 83%

Day after tomorrow, 15 July, Wednesday

Time Temperature Precipitation Wind Pressure Humidity
00:00 +18°C° 0 mm 1 mps 720 mmHg 85%
01:00 +18°C° 0 mm 1 mps 720 mmHg 86%
02:00 +16°C° 0 mm 1 mps 720 mmHg 87%
03:00 +16°C° 0 mm 1 mps 720 mmHg 87%
04:00 +15°C° 0 mm 0 mps 720 mmHg 88%
05:00 +14°C° 0 mm 0 mps 720 mmHg 89%
06:00 +18°C° 0 mm 1 mps 720 mmHg 83%
07:00 +20°C° 0 mm 1 mps 721 mmHg 78%
08:00 +22°C° 0 mm 1 mps 721 mmHg 73%
09:00 +23°C° 0 mm 1 mps 721 mmHg 66%
10:00 +25°C° 0 mm 1 mps 721 mmHg 60%
11:00 +26°C° 0 mm 2 mps 721 mmHg 54%
12:00 +27°C° 0 mm 1 mps 721 mmHg 52%
13:00 +27°C° 0 mm 1 mps 720 mmHg 50%
14:00 +28°C° 0 mm 1 mps 720 mmHg 47%
15:00 +28°C° 0 mm 1 mps 720 mmHg 47%
16:00 +28°C° 0 mm 1 mps 720 mmHg 46%
17:00 +28°C° 0 mm 1 mps 720 mmHg 45%
18:00 +26°C° 0 mm 1 mps 719 mmHg 52%
19:00 +24°C° 0 mm 1 mps 719 mmHg 59%
20:00 +22°C° 0 mm 1 mps 719 mmHg 66%
21:00 +22°C° 0 mm 1 mps 719 mmHg 66%
22:00 +21°C° 0 mm 1 mps 719 mmHg 67%
23:00 +21°C° 0 mm 1 mps 720 mmHg 68%

16 July, Thursday

Time Temperature Precipitation Wind Pressure Humidity
00:00 +21°C° 0.1 mm 1 mps 720 mmHg 71%
01:00 +20°C° 0.1 mm 1 mps 719 mmHg 73%
02:00 +20°C° 0.1 mm 1 mps 719 mmHg 76%
03:00 +19°C° 0.2 mm 1 mps 719 mmHg 79%
04:00 +19°C° 0.2 mm 1 mps 719 mmHg 83%
05:00 +16°C° 0.2 mm 0 mps 719 mmHg 87%
06:00 +18°C° 0.2 mm 0 mps 719 mmHg 83%
07:00 +21°C° 0.2 mm 1 mps 719 mmHg 80%
08:00 +23°C° 0.2 mm 1 mps 719 mmHg 77%
09:00 +24°C° 0.7 mm 1 mps 719 mmHg 71%
10:00 +25°C° 0.7 mm 1 mps 719 mmHg 66%
11:00 +27°C° 0.7 mm 1 mps 719 mmHg 60%
12:00 +27°C° 0.8 mm 1 mps 719 mmHg 59%
13:00 +28°C° 0.8 mm 1 mps 719 mmHg 57%
14:00 +28°C° 0.8 mm 2 mps 718 mmHg 55%
15:00 +28°C° 0.6 mm 2 mps 718 mmHg 56%
16:00 +28°C° 0.6 mm 2 mps 718 mmHg 57%
17:00 +27°C° 0.6 mm 2 mps 717 mmHg 58%
18:00 +25°C° 0.3 mm 2 mps 717 mmHg 65%
19:00 +24°C° 0.3 mm 1 mps 717 mmHg 71%
20:00 +22°C° 0.3 mm 1 mps 717 mmHg 78%
21:00 +21°C° 0 mm 1 mps 717 mmHg 80%
22:00 +20°C° 0 mm 1 mps 718 mmHg 81%
23:00 +19°C° 0 mm 1 mps 718 mmHg 83%

17 July, Friday

Time Temperature Precipitation Wind Pressure Humidity
00:00 +19°C° 0 mm 1 mps 718 mmHg 84%
01:00 +19°C° 0 mm 1 mps 718 mmHg 84%
02:00 +18°C° 0 mm 1 mps 718 mmHg 85%
03:00 +18°C° 0 mm 1 mps 718 mmHg 85%
04:00 +18°C° 0 mm 1 mps 717 mmHg 86%
05:00 +16°C° 0 mm 1 mps 717 mmHg 87%
06:00 +19°C° 0 mm 1 mps 718 mmHg 82%
07:00 +21°C° 0 mm 1 mps 718 mmHg 77%
08:00 +23°C° 0 mm 1 mps 718 mmHg 72%
09:00 +25°C° 0.1 mm 1 mps 718 mmHg 66%
10:00 +26°C° 0.1 mm 1 mps 718 mmHg 61%
11:00 +28°C° 0.1 mm 1 mps 718 mmHg 56%
12:00 +28°C° 0.3 mm 1 mps 718 mmHg 54%
13:00 +29°C° 0.3 mm 1 mps 718 mmHg 52%
14:00 +30°C° 0.3 mm 1 mps 717 mmHg 50%
15:00 +29°C° 0.2 mm 1 mps 717 mmHg 52%
16:00 +29°C° 0.2 mm 1 mps 717 mmHg 53%
17:00 +28°C° 0.2 mm 1 mps 716 mmHg 55%
18:00 +27°C° 0.3 mm 1 mps 716 mmHg 62%
19:00 +25°C° 0.3 mm 1 mps 716 mmHg 69%
20:00 +23°C° 0.3 mm 1 mps 716 mmHg 76%
21:00 +22°C° 0.3 mm 1 mps 716 mmHg 79%
22:00 +22°C° 0.3 mm 1 mps 717 mmHg 81%
23:00 +21°C° 0.3 mm 1 mps 717 mmHg 84%

18 July, Saturday

Time Temperature Precipitation Wind Pressure Humidity
00:00 +21°C° 0.5 mm 1 mps 717 mmHg 85%
01:00 +20°C° 0.5 mm 1 mps 717 mmHg 86%
02:00 +20°C° 0.5 mm 1 mps 717 mmHg 87%
03:00 +20°C° 0.5 mm 1 mps 717 mmHg 89%
04:00 +20°C° 0.5 mm 1 mps 717 mmHg 90%
05:00 +17°C° 0.5 mm 0 mps 716 mmHg 92%
06:00 +20°C° 0.7 mm 1 mps 717 mmHg 90%
07:00 +21°C° 0.7 mm 1 mps 717 mmHg 88%
08:00 +22°C° 0.7 mm 1 mps 717 mmHg 87%
09:00 +23°C° 1 mm 1 mps 717 mmHg 84%
10:00 +23°C° 1 mm 1 mps 717 mmHg 82%
11:00 +24°C° 1 mm 1 mps 717 mmHg 79%
12:00 +25°C° 1.5 mm 1 mps 716 mmHg 78%
13:00 +25°C° 1.5 mm 1 mps 716 mmHg 76%
14:00 +25°C° 1.5 mm 1 mps 716 mmHg 75%
15:00 +25°C° 2.2 mm 1 mps 716 mmHg 77%
16:00 +25°C° 2.2 mm 1 mps 715 mmHg 79%
17:00 +24°C° 2.2 mm 1 mps 715 mmHg 80%
18:00 +23°C° 1.8 mm 1 mps 715 mmHg 85%
19:00 +22°C° 1.8 mm 1 mps 715 mmHg 89%
20:00 +21°C° 1.8 mm 1 mps 715 mmHg 93%
21:00 +20°C° 1.4 mm 1 mps 716 mmHg 94%
22:00 +20°C° 1.4 mm 1 mps 716 mmHg 94%
23:00 +20°C° 1.4 mm 1 mps 717 mmHg 95%
Show more